TimeMDT,TemperatureF,Dew PointF,Humidity,Sea Level PressureIn,VisibilityMPH,Wind Direction,Wind SpeedMPH,Gust SpeedMPH,PrecipitationIn,Events,Conditions,WindDirDegrees,DateUTC
12:15 AM,55.0,6.8,14,29.96,10.0,NW,10.4,-,N/A,,Clear,310,2013-04-03 06:15:00
12:35 AM,54.5,7.2,15,29.96,10.0,NW,6.9,-,N/A,,Clear,310,2013-04-03 06:35:00
12:55 AM,51.6,6.6,16,29.96,10.0,NW,6.9,-,N/A,,Clear,320,2013-04-03 06:55:00
1:15 AM,50.2,7.3,18,29.97,10.0,NNW,10.4,-,N/A,,Clear,330,2013-04-03 07:15:00
1:35 AM,52.7,10.4,18,29.98,10.0,NW,9.2,-,N/A,,Clear,310,2013-04-03 07:35:00
1:55 AM,50.9,9.9,19,29.98,10.0,NW,9.2,-,N/A,,Clear,320,2013-04-03 07:55:00
2:15 AM,52.5,13.5,21,29.99,10.0,NNW,12.7,-,N/A,,Clear,330,2013-04-03 08:15:00
2:35 AM,52.9,24.3,33,29.99,10.0,NNW,12.7,-,N/A,,Clear,340,2013-04-03 08:35:00
2:55 AM,52.9,26.2,36,29.99,10.0,NNW,15.0,-,N/A,,Clear,340,2013-04-03 08:55:00
3:15 AM,51.8,26.4,37,30.00,10.0,NNW,10.4,-,N/A,,Clear,340,2013-04-03 09:15:00
3:35 AM,50.5,26.6,39,30.01,10.0,North,8.1,-,N/A,,Clear,10,2013-04-03 09:35:00
3:55 AM,50.0,27.1,41,30.02,10.0,North,9.2,-,N/A,,Clear,10,2013-04-03 09:55:00
4:15 AM,48.4,27.9,45,30.03,10.0,North,9.2,-,N/A,,Clear,350,2013-04-03 10:15:00
4:35 AM,47.5,28.0,47,30.03,10.0,North,6.9,-,N/A,,Clear,350,2013-04-03 10:35:00
4:55 AM,46.0,27.5,48,30.03,10.0,NNW,8.1,-,N/A,,Clear,340,2013-04-03 10:55:00
5:15 AM,45.7,27.9,50,30.04,10.0,NNW,9.2,-,N/A,,Clear,340,2013-04-03 11:15:00
5:35 AM,44.6,27.5,51,30.04,10.0,NNW,6.9,-,N/A,,Clear,340,2013-04-03 11:35:00
5:55 AM,43.7,27.5,53,30.05,10.0,North,3.5,-,N/A,,Clear,350,2013-04-03 11:55:00
6:15 AM,45.1,27.5,50,30.06,10.0,Calm,Calm,-,N/A,,Clear,0,2013-04-03 12:15:00
6:35 AM,42.8,29.3,59,30.06,10.0,SSW,5.8,-,N/A,,Clear,200,2013-04-03 12:35:00
6:55 AM,41.5,29.3,62,30.07,10.0,South,4.6,-,N/A,,Clear,190,2013-04-03 12:55:00
7:15 AM,41.4,29.5,63,30.08,10.0,SSW,4.6,-,N/A,,Clear,200,2013-04-03 13:15:00
7:35 AM,41.9,30.0,63,30.08,10.0,SW,3.5,-,N/A,,Clear,220,2013-04-03 13:35:00
7:55 AM,43.5,30.9,61,30.10,10.0,Calm,Calm,-,N/A,,Clear,0,2013-04-03 13:55:00
8:15 AM,45.7,32.0,59,30.11,10.0,South,5.8,-,N/A,,Clear,180,2013-04-03 14:15:00
8:35 AM,47.3,32.0,55,30.11,10.0,SSE,4.6,-,N/A,,Clear,150,2013-04-03 14:35:00
8:55 AM,48.6,32.0,53,30.12,10.0,SSE,3.5,-,N/A,,Clear,160,2013-04-03 14:55:00
9:15 AM,50.7,32.0,49,30.12,10.0,South,3.5,-,N/A,,Clear,170,2013-04-03 15:15:00
9:35 AM,52.3,31.8,46,30.12,10.0,SSE,4.6,-,N/A,,Clear,160,2013-04-03 15:35:00
9:55 AM,54.1,31.3,42,30.12,10.0,South,5.8,-,N/A,,Clear,170,2013-04-03 15:55:00
10:15 AM,55.0,30.9,40,30.12,10.0,South,5.8,-,N/A,,Clear,170,2013-04-03 16:15:00
10:35 AM,56.5,30.4,37,30.13,10.0,South,8.1,-,N/A,,Clear,180,2013-04-03 16:35:00
10:55 AM,57.4,30.9,37,30.13,10.0,SSW,4.6,-,N/A,,Clear,210,2013-04-03 16:55:00
11:15 AM,57.9,31.1,36,30.13,10.0,SSW,4.6,-,N/A,,Clear,210,2013-04-03 17:15:00
11:35 AM,58.8,31.1,35,30.12,10.0,SE,8.1,-,N/A,,Clear,130,2013-04-03 17:35:00
11:55 AM,59.7,30.7,33,30.12,10.0,SW,3.5,-,N/A,,Clear,230,2013-04-03 17:55:00
12:15 PM,60.8,30.4,32,30.11,10.0,ESE,3.5,-,N/A,,Clear,120,2013-04-03 18:15:00
12:35 PM,63.3,30.6,29,30.11,10.0,South,4.6,-,N/A,,Clear,170,2013-04-03 18:35:00
12:55 PM,63.5,30.2,29,30.09,10.0,ENE,5.8,-,N/A,,Clear,70,2013-04-03 18:55:00
1:15 PM,64.8,30.0,27,30.08,10.0,SSE,8.1,-,N/A,,Clear,160,2013-04-03 19:15:00
1:35 PM,66.6,28.9,24,30.08,10.0,WSW,10.4,-,N/A,,Scattered Clouds,250,2013-04-03 19:35:00
1:55 PM,66.0,28.6,25,30.07,10.0,SW,5.8,-,N/A,,Scattered Clouds,220,2013-04-03 19:55:00
2:15 PM,66.9,28.4,24,30.07,10.0,Calm,Calm,-,N/A,,Scattered Clouds,0,2013-04-03 20:15:00
2:35 PM,68.5,28.0,22,30.07,10.0,Calm,Calm,-,N/A,,Mostly Cloudy,0,2013-04-03 20:35:00
2:55 PM,67.1,27.3,22,30.06,10.0,East,3.5,-,N/A,,Overcast,80,2013-04-03 20:55:00
3:15 PM,69.1,28.0,22,30.05,10.0,South,5.8,-,N/A,,Overcast,170,2013-04-03 21:15:00
3:35 PM,69.1,26.2,20,30.05,10.0,SW,4.6,-,N/A,,Scattered Clouds,220,2013-04-03 21:35:00
3:55 PM,70.5,25.5,19,30.04,10.0,NW,5.8,-,N/A,,Clear,310,2013-04-03 21:55:00
4:15 PM,70.5,25.5,19,30.04,10.0,West,6.9,-,N/A,,Clear,270,2013-04-03 22:15:00
4:35 PM,70.5,24.8,18,30.03,10.0,NE,6.9,-,N/A,,Clear,40,2013-04-03 22:35:00
4:55 PM,70.5,24.8,18,30.03,10.0,East,3.5,-,N/A,,Clear,90,2013-04-03 22:55:00
5:15 PM,70.5,23.7,17,30.03,10.0,Calm,Calm,-,N/A,,Scattered Clouds,0,2013-04-03 23:15:00
5:35 PM,72.0,21.6,15,30.03,10.0,West,8.1,-,N/A,,Scattered Clouds,270,2013-04-03 23:35:00
5:55 PM,70.9,21.0,15,30.03,10.0,SW,5.8,-,N/A,,Scattered Clouds,230,2013-04-03 23:55:00
6:15 PM,70.0,20.8,16,30.03,10.0,Calm,Calm,-,N/A,,Scattered Clouds,0,2013-04-04 00:15:00
6:35 PM,68.7,24.6,19,30.04,10.0,ESE,4.6,-,N/A,,Scattered Clouds,110,2013-04-04 00:35:00
6:55 PM,68.7,24.4,19,30.04,10.0,ESE,4.6,-,N/A,,Scattered Clouds,110,2013-04-04 00:55:00
7:15 PM,67.3,24.4,20,30.04,10.0,East,6.9,-,N/A,,Overcast,90,2013-04-04 01:15:00
7:35 PM,65.7,23.9,21,30.04,10.0,East,4.6,-,N/A,,Mostly Cloudy,80,2013-04-04 01:35:00
7:55 PM,63.5,23.5,22,30.05,10.0,ESE,5.8,-,N/A,,Scattered Clouds,120,2013-04-04 01:55:00
8:15 PM,63.0,24.3,23,30.05,10.0,East,4.6,-,N/A,,Mostly Cloudy,90,2013-04-04 02:15:00
8:35 PM,62.4,24.3,23,30.06,10.0,SE,4.6,-,N/A,,Scattered Clouds,140,2013-04-04 02:35:00
8:55 PM,61.2,24.3,24,30.07,10.0,SSE,4.6,-,N/A,,Clear,150,2013-04-04 02:55:00
9:15 PM,60.8,23.7,24,30.08,10.0,SSE,5.8,-,N/A,,Clear,160,2013-04-04 03:15:00
9:35 PM,60.4,23.5,24,30.09,10.0,SSE,6.9,-,N/A,,Clear,160,2013-04-04 03:35:00
9:55 PM,60.4,23.9,25,30.10,10.0,SSE,8.1,-,N/A,,Clear,160,2013-04-04 03:55:00
10:15 PM,60.3,24.8,26,30.10,10.0,SSE,8.1,-,N/A,,Clear,160,2013-04-04 04:15:00
10:35 PM,59.7,25.0,26,30.11,10.0,SSE,8.1,-,N/A,,Clear,150,2013-04-04 04:35:00
10:55 PM,59.9,25.0,26,30.11,10.0,SE,8.1,-,N/A,,Clear,140,2013-04-04 04:55:00
11:15 PM,59.0,25.0,27,30.11,10.0,SE,8.1,-,N/A,,Clear,140,2013-04-04 05:15:00
11:35 PM,57.6,24.8,28,30.11,10.0,SE,5.8,-,N/A,,Clear,130,2013-04-04 05:35:00
11:55 PM,57.4,24.8,29,30.12,10.0,SE,4.6,-,N/A,,Clear,140,2013-04-04 05:55:00